Location: Invercargill
(46.4000°S, 168.3500°E)
Time: 11:27:22
(UTC+12:00)

Cosmos 2369 Rocket - Pass Details

Date: 14 May 2021
Orbit: 827 x 854 km, 71.0° (Epoch: 15 June)

Event Time Altitude Azimuth Distance (km) Brightness Sun altitude
Rises 19:19:48 0° 200° (SSW) 3,424 5.5 -19.7°
Reaches altitude 10° 19:22:53 10° 184° (S) 2,479 4.6 -20.2°
Enters shadow 19:25:59 20° 153° (SSE) 1,860 3.7 -20.7°
